Regional Weather Roundup
Issued by NWS

Home | Current Version | Previous Version | Graphics & Text | Print | Product List | Glossary On
Versions: 1 2 3 4 5 6 7 8 9 10 11 12 13 14 15 16 17 18 19 20 21 22 23 24 25 26 27
000
ASUS45 KBOU 161107
RWRCO

WEATHER ROUNDUP FOR COLORADO
NATIONAL WEATHER SERVICE DENVER/BOULDER CO
500 AM MDT MON OCT 16 2017

NOTE: "FAIR" INDICATES FEW OR NO CLOUDS BELOW 12000 FEET WITH NO
SIGNIFICANT WEATHER AND/OR OBSTRUCTIONS TO VISIBILITY.

COZ001>005-013-030-031-161200-
...NORTHWEST COLORADO...

CITY           SKY/WX    TMP DP  RH WIND       PRES   REMARKS
CRAIG          FAIR      22  16  78 CALM      30.47R
HAYDEN         FAIR      32  16  51 E12       30.48S WCI  23
MEEKER         FAIR      25  16  68 CALM      30.48R
RABBIT EARS PA FAIR      34   1  25 W7        30.57F WCI  28
STEAMBOAT SPGS FAIR      26  16  64 CALM      30.48S
WALDEN         FAIR      30  10  43 S5        30.49S WCI  25
$$

COZ006>008-011-161200-
...WEST CENTRAL VALLEYS...

CITY           SKY/WX    TMP DP  RH WIND       PRES   REMARKS
GRAND JUNCTION FAIR      31  14  49 E8        30.46R WCI  23
MONTROSE       FAIR      28  14  55 S8        30.50S WCI  20
EAGLE          FAIR      26  17  68 CALM      30.56S
RIFLE          FAIR      28  17  63 CALM      30.50R
DELTA          FAIR      32  14  47 CALM      30.49S
NUCLA          FAIR      32   7  34 E7        30.52S WCI  26
$$

COZ017>023-064>068-161200-
...SOUTHWEST COLORADO...

CITY           SKY/WX    TMP DP  RH WIND       PRES   REMARKS
DURANGO        FAIR      24  13  62 NE5       30.51S WCI  18
CORTEZ         FAIR      22  14  71 E6        30.49S WCI  14
PAGOSA SPRINGS FAIR      29  12  49 CALM      30.55F
TELLURIDE      NOT AVBL
WOLF CREEK PAS FAIR      37 -13  11 SW8       30.76S
$$

COZ009-010-012-014-032>034-037-058>063-161200-
...CENTRAL COLORADO...

CITY           SKY/WX    TMP DP  RH WIND       PRES   REMARKS
ASPEN          FAIR      28  11  48 SW7       30.51F WCI  21
BUENA VISTA    FAIR      26  13  56 W3        30.53R
COPPER MTN     LGT SNOW  36   0  21 W16       30.66F
BERTHOUD PASS  FAIR      30  19  64 NW38G52   30.59R WCI  14
COTTONWOOD PAS FAIR      46  -8  10 NW3       30.58S
GUNNISON       FAIR      19   9  65 NE3       30.61R
KREMMLING      FAIR      23  19  86 CALM      30.56R
LEADVILLE      FAIR      37  -9  13 N5        30.57S
MONARCH PASS   FAIR      32   0  25 SW25      30.77S WCI  19
SALIDA         NOT AVBL
SUNLIGHT       FAIR      36  -8  15 SW9       30.66S
WILKERSON PASS FAIR      36  -6  17 W7        30.64S
$$

COZ069>075-161200-
...SAN LUIS VALLEY/SANGRE DE CRISTO MOUNTAINS...

CITY           SKY/WX    TMP DP  RH WIND       PRES   REMARKS
ALAMOSA        FAIR      21  14  74 NW6       30.54S WCI  13
DEL NORTE      FAIR      32   7  33 W15       30.55F WCI  22
LA VETA PASS   FAIR      36  12  38 SW29      30.67F
SAGUACHE       FAIR      32   7  34 N13       30.56S WCI  22
$$

COZ035-036-038>040-161200-
...NORTHERN COLORADO FRONT RANGE...

CITY           SKY/WX    TMP DP  RH WIND       PRES   REMARKS
DENVER INTL AP FAIR      46  19  34 SW12      30.32F
DMNS CITY PARK   N/A     42  22  46 SE7G13    30.33S
AURORA         PTCLDY    43  20  39 S10       30.34S
FRONT RANGE AP FAIR      41  27  56 S15       30.33F
ERIE MUNI ARPT FAIR      31  28  87 SE3       30.37S
BOULDER MUN AP FAIR      39  30  70 CALM      30.31F HAZE
CENTENNIAL     FAIR      37  22  54 SE6       30.34F
BROOMFIELD     FAIR      43  21  42 SE3       30.33F
FORT COLLINS   FAIR      37  28  70 N7        30.32F
LONGMONT       FAIR      34  28  77 CALM      30.33F
$$

COZ041-046-047-076>085-087-088-161200-
...PIKES PEAK/PALMER DIVIDE AND SOUTHERN FOOTHILLS...

CITY           SKY/WX    TMP DP  RH WIND       PRES   REMARKS
COLO. SPRINGS  MOCLDY    36  23  59 NE6       30.40F
A. F. ACADEMY  FAIR      32  19  59 NE8       30.39F WCI  25
SCHRIEVER AFB  FAIR      41  18  38 MISG      30.40F
CHEYENNE MTN   MOCLDY    49  11  21 W3        30.36S
ELLICOTT       FAIR     N/A N/A N/A E5        30.38F
FALCON         FAIR      36  16  44 NE5       30.42S
FORT CARSON    FAIR      36  21  53 NW6       30.38S HAZE
LIMON          FAIR      24  22  91 N3        30.37S
MONUMENT HILL  FAIR      41  10  28 SW8       30.42S
CANON CITY     CLEAR     45  19  36 CALM      30.37S
WALSENBURG     FAIR      36  19  51 CALM      30.40F
TRINIDAD       FAIR      41  24  51 W13       30.40F
$$

COZ042>045-048>051-090-091-161200-
...NORTHEAST COLORADO...

CITY           SKY/WX    TMP DP  RH WIND       PRES   REMARKS
GREELEY ARPT   FAIR      28  26  92 NW6       30.33F WCI  22
AKRON          FAIR      44  24  45 W16       30.30F
BURLINGTON     FAIR      35  28  75 SW10      30.33F WCI  27
WRAY           FAIR      37  30  75 W8        30.30F
YUMA           NOT AVBL
STERLING       FAIR      32  28  86 S6        30.30S WCI  26
HOLYOKE        FAIR      34  30  86 W5        30.30F WCI  30
FORT MORGAN    FAIR      30  24  77 SW3       30.32S
$$

COZ086-089-092>099-161200-
...SOUTHEAST COLORADO...

CITY           SKY/WX    TMP DP  RH WIND       PRES   REMARKS
PUEBLO         FAIR      33  26  75 W7        30.37F WCI  27
LA JUNTA       FAIR      35  28  75 W12       30.36F WCI  27
LAMAR          FAIR      29  25  85 W3        30.35S
SPRINGFIELD      N/A     31  29  92 SW7       30.36F WCI  24
$$




USA.gov is the U.S. government's official web portal to all federal, state and local government web resources and services.